Temp
64 64 63 63 64 64 64 64 64 64 64 64 63 63 64 64 65 95 94 97 97 87 87 103 106 109 113 107 108 106 85 79 84 84 84 93 89 96 98 93 95 94 89 88 93
63 63 63 63 63 63 63 63 63 63 63 63 63 63 64 64 82 92 97 88 88 87 102 104 104 108 105 104 103 98 86 83 93 94 90 93 93 93 91 90 87 89 91 91 94
63 63 63 63 63 63 63 63 63 63 62 62 63 63 64 68 87 99 86 87 86 89 103 105 107 106 103 105 103 99 86 95 95 97 97 94 94 99 93 85 88 83 86 90 92
63 62 62 62 63 62 62 62 62 62 62 62 63 64 64 80 83 103 87 88 86 100 104 104 105 102 98 97 103 93 98 98 97 99 97 93 96 92 92 89 94 91 91 92 91
62 62 62 62 62 62 62 62 62 61 62 62 63 64 78 86 92 105 88 88 103 103 103 104 102 102 97 100 100 96 97 99 99 99 98 98 92 90 90 94 95 93 93 93 94
61 61 61 62 61 62 62 61 61 61 62 63 64 64 79 83 112 111 110 107 107 106 106 107 105 106 101 100 97 100 99 99 100 98 99 94 91 92 92 95 93 93 93 95 95
61 61 61 61 61 61 61 60 60 61 62 63 64 76 86 91 112 113 110 109 111 110 105 111 110 104 104 98 103 102 94 98 98 98 91 86 79 87 94 95 92 93 94 96 96
61 61 61 60 60 60 60 59 60 61 62 64 66 80 84 109 111 110 112 109 113 113 111 112 111 105 102 105 101 96 94 85 95 96 89 87 72 90 95 93 91 93 94 94 95
61 61 61 60 60 59 58 59 60 63 64 66 78 84 88 96 102 108 111 105 109 110 111 112 107 101 102 95 90 93 83 85 89 98 91 89 77 91 96 94 92 93 93 94 94
60 60 60 60 59 58 58 59 67 64 70 84 87 84 92 95 104 107 111 109 105 105 103 103 100 94 96 92 78 81 80 88 86 94 95 89 85 91 95 95 92 93 93 93 94
60 59 59 58 58 57 64 85 80 77 84 87 90 91 98 105 110 105 109 106 105 101 91 98 90 86 92 94 93 92 88 88 92 97 92 91 87 90 94 95 92 94 93 94 95
60 59 58 58 57 57 62 81 93 95 83 91 94 96 102 105 96 101 109 97 95 89 95 92 85 94 98 97 93 93 90 88 92 96 93 91 89 92 94 95 94 95 94 95 97
59 58 58 57 57 63 82 89 101 100 83 91 95 94 97 100 93 97 102 99 93 89 91 87 92 99 94 93 90 91 89 86 87 92 95 92 87 87 94 96 98 98 98 99 97
58 58 57 56 62 86 89 98 101 101 76 84 90 94 98 99 90 105 106 100 95 89 92 91 97 96 93 91 94 85 94 93 90 87 78 93 75 86 90 91 95 98 98 99 99
59 58 57 55 66 82 95 101 102 95 61 91 92 106 100 93 96 97 108 101 91 92 93 88 92 92 90 92 96 89 95 93 92 87 86 85 81 74 74 61 71 95 99 100 96
58 57 56 72 69 82 96 100 94 72 63 85 91 90 89 92 94 100 99 103 101 93 95 93 102 98 95 98 98 98 93 92 91 87 75 85 83 74 62 63 75 91 98 100 98
57 55 56 71 83 97 98 90 71 65 88 83 83 89 88 86 89 94 90 88 85 79 81 89 92 98 100 92 95 94 88 75 72 70 73 85 81 76 77 76 72 87 96 99 78
55 54 62 71 90 89 91 78 62 78 81 93 90 88 83 89 88 91 88 84 91 90 84 79 77 92 98 94 89 89 89 76 64 68 71 82 69 76 88 86 92 97 97 99 92
54 83 81 87 85 92 82 67 70 79 90 88 89 82 82 88 88 89 86 85 90 92 81 81 81 97 98 98 95 87 83 94 81 84 75 78 77 84 83 93 94 94 94 95 95
64 79 88 97 92 87 76 64 78 89 91 91 81 85 79 84 84 86 85 91 89 94 97 90 80 92 95 98 97 92 95 81 85 69 68 71 71 65 60 69 84 90 92 93 94
68 78 92 97 92 81 69 74 82 91 91 85 84 84 85 84 86 86 86 91 95 94 96 93 89 85 93 89 87 89 86 87 88 84 71 58 64 77 67 72 73 87 92 92 92
77 74 93 95 75 78 75 80 76 89 93 88 89 87 86 88 86 85 85 91 98 97 89 94 91 81 86 96 98 94 90 90 79 76 76 75 73 78 80 73 61 69 92 94 92
72 82 93 91 71 75 81 82 86 87 88 87 86 89 91 88 82 88 89 98 99 96 91 93 86 78 80 90 94 89 91 92 91 85 73 70 64 69 76 85 83 91 90 77 84
72 75 82 83 84 80 79 80 80 90 89 90 87 91 88 85 91 85 88 95 98 97 82 91 90 82 71 80 87 84 89 88 87 68 64 69 56 57 67 87 90 89 88 80 80
73 77 76 74 77 79 82 82 80 80 89 89 84 85 85 81 85 85 90 93 96 89 92 93 79 77 66 83 87 80 78 79 81 85 73 63 57 59 69 85 89 90 85 82 80
71 75 72 79 85 81 74 79 81 84 85 84 83 87 87 82 86 84 89 90 88 93 90 94 80 82 70 83 86 79 79 81 85 87 86 75 64 75 87 89 87 86 85 81 80
79 81 76 70 81 81 80 81 82 88 90 91 90 87 86 89 95 98 100 98 96 90 88 88 86 82 75 84 82 76 83 84 88 89 86 78 79 85 82 83 82 82 83 81 80
MSLP
1015.47 1015.24 1014.97 1014.62 1014.25 1013.89 1013.47 1013.08 1012.81 1012.40 1011.99 1011.61 1011.23 1010.77 1010.40 1009.67 1008.19 1006.20 1004.85 1003.54 1003.42 1003.32 1003.22 1002.06 1000.77 998.85 997.62 997.32 997.41 997.92 998.43 999.37 999.29 999.85 1000.34 1000.80 1000.91 1001.16 1001.53 1001.91 1002.10 1003.33 1005.28 1007.09 1007.73
1015.53 1015.23 1014.91 1014.64 1014.38 1013.99 1013.45 1012.89 1012.56 1012.25 1011.95 1011.65 1011.11 1010.70 1010.45 1009.83 1007.94 1005.23 1003.08 1003.07 1003.21 1003.27 1002.87 1000.78 999.12 998.05 997.30 996.89 997.05 997.28 998.08 999.48 999.22 999.57 1000.09 1000.23 1000.31 1000.59 1001.51 1002.28 1003.43 1004.34 1005.89 1007.25 1007.37
1015.70 1015.29 1014.91 1014.61 1014.26 1013.79 1013.34 1012.90 1012.37 1012.08 1011.79 1011.55 1011.05 1010.49 1010.18 1009.67 1006.73 1002.80 1002.57 1002.84 1002.92 1002.94 1002.65 1001.36 999.46 997.85 996.73 996.76 996.67 997.30 998.56 998.55 999.46 999.53 999.77 1000.02 1000.05 1000.08 1001.07 1002.52 1003.73 1005.29 1006.31 1007.02 1007.27
1015.58 1015.31 1015.03 1014.66 1014.30 1013.98 1013.50 1012.95 1012.35 1011.94 1011.59 1011.42 1011.04 1010.45 1009.97 1008.90 1004.74 1002.21 1002.51 1002.62 1002.72 1002.77 1002.21 1000.40 998.56 997.24 996.62 996.67 997.05 997.79 998.24 998.72 999.39 999.40 999.63 999.59 1000.96 1001.51 1002.13 1003.10 1004.21 1005.54 1006.33 1006.79 1007.10
1015.56 1015.16 1014.86 1014.61 1014.35 1014.00 1013.51 1012.96 1012.48 1012.00 1011.53 1011.23 1010.95 1010.53 1009.05 1006.73 1003.11 1002.08 1002.35 1002.55 1002.57 1002.42 1001.51 999.49 998.04 997.08 996.31 996.72 997.05 997.51 998.03 998.89 999.35 999.44 999.75 1000.25 1001.35 1002.19 1002.99 1003.77 1004.68 1005.50 1005.84 1006.10 1006.26
1015.68 1015.15 1014.68 1014.27 1013.95 1013.69 1013.37 1012.94 1012.45 1011.95 1011.49 1011.14 1010.95 1010.63 1009.00 1004.73 1000.93 1001.24 1001.57 1001.79 1001.66 1001.33 1000.48 999.22 998.24 997.91 997.03 996.69 997.13 997.77 997.79 998.26 998.99 999.54 999.96 1000.60 1001.59 1002.15 1003.29 1003.96 1004.72 1005.15 1005.17 1005.19 1005.38
1015.75 1015.25 1014.78 1014.33 1013.91 1013.55 1013.23 1012.84 1012.40 1011.79 1011.28 1011.10 1011.00 1010.21 1007.05 1003.06 1000.93 1000.79 1001.30 1000.96 1000.68 1000.23 999.64 998.76 998.63 998.42 997.47 997.06 997.41 997.49 997.64 997.98 998.50 999.17 1000.51 1001.77 1002.46 1002.04 1003.03 1003.67 1004.14 1004.51 1004.60 1004.79 1005.19
1015.76 1015.24 1014.78 1014.29 1013.74 1013.34 1012.99 1012.49 1012.04 1011.60 1011.12 1010.91 1010.87 1009.57 1005.19 1001.27 1001.61 1001.08 1000.76 1000.49 1000.20 999.93 999.62 999.13 999.00 998.79 997.82 997.27 997.38 997.08 997.40 997.73 998.28 998.95 1000.89 1001.24 1003.15 1002.29 1002.87 1003.27 1003.72 1004.01 1004.44 1004.79 1005.16
1015.64 1015.22 1014.78 1014.21 1013.62 1013.05 1012.55 1012.04 1011.42 1011.10 1010.89 1010.67 1009.84 1007.82 1003.31 1001.59 1001.26 1001.00 1000.65 1000.24 999.86 999.89 999.73 999.39 999.49 998.63 997.64 997.15 996.93 996.45 996.90 997.35 997.68 998.27 999.78 1000.05 1002.12 1001.90 1002.47 1002.60 1003.08 1003.62 1004.23 1004.61 1004.99
1015.52 1015.14 1014.63 1014.03 1013.51 1012.89 1011.94 1010.97 1010.49 1010.73 1010.30 1009.29 1008.19 1006.35 1002.68 1000.56 1000.24 1000.35 1000.17 1000.00 999.44 999.42 999.40 999.15 998.99 998.17 996.94 996.45 996.64 996.80 998.00 996.68 996.83 997.67 998.30 998.88 1000.02 1000.89 1001.30 1001.61 1002.04 1002.65 1003.57 1004.12 1004.48
1015.49 1014.98 1014.42 1013.85 1013.37 1013.00 1011.89 1009.45 1009.85 1008.93 1007.80 1005.03 1003.64 1002.19 1000.07 999.94 999.64 999.73 999.68 999.71 999.37 999.14 998.98 998.73 998.32 997.24 996.18 995.91 996.69 996.41 996.59 996.02 996.30 997.00 997.73 997.76 998.95 999.79 1000.17 1000.52 1001.20 1001.63 1002.57 1003.05 1003.57
1015.46 1014.90 1014.26 1013.59 1013.00 1012.76 1012.56 1008.85 1005.38 1004.77 1004.03 1003.42 1002.46 1001.29 1000.17 999.37 999.27 999.38 999.41 999.51 999.29 998.71 998.79 998.42 997.67 996.77 996.65 996.28 996.30 995.93 995.71 995.78 996.43 996.87 997.39 997.54 997.82 998.66 999.47 999.80 1000.36 1000.76 1001.41 1001.91 1002.50
1015.39 1014.85 1014.16 1013.36 1012.45 1011.64 1009.45 1006.80 1005.23 1004.47 1003.17 1000.82 1000.57 1000.45 1000.10 1000.31 999.49 998.91 999.31 999.01 998.82 998.58 998.04 997.72 997.00 996.46 996.61 996.30 996.22 995.75 995.47 996.34 996.21 996.80 996.93 996.97 997.43 998.39 998.89 999.42 999.70 999.93 1000.35 1000.47 1001.00
1015.36 1014.82 1014.26 1013.17 1011.91 1009.02 1006.93 1005.58 1005.31 1004.49 1002.44 998.93 998.46 998.97 999.44 999.66 999.15 998.23 998.44 998.60 998.31 998.00 997.77 997.32 996.50 995.97 996.24 995.97 995.72 995.39 995.84 995.84 996.13 996.36 996.44 996.85 997.22 998.47 999.14 1000.09 1000.15 999.79 999.20 999.05 1000.84
1015.13 1014.70 1014.19 1014.51 1012.21 1008.54 1005.49 1005.16 1004.71 1004.22 1000.66 995.91 997.11 997.44 998.17 998.67 997.67 997.72 997.64 998.05 997.71 997.29 997.45 996.74 996.14 995.53 995.42 995.70 995.40 995.49 996.17 995.99 996.08 996.31 996.07 996.80 997.66 1001.34 1001.38 1004.30 1002.95 1000.21 998.92 998.95 997.63
1014.78 1014.45 1014.13 1011.79 1011.94 1007.98 1006.44 1005.30 1005.01 1003.32 998.65 996.24 996.94 997.06 997.62 997.99 997.51 996.96 997.15 997.88 997.60 997.29 996.96 996.39 995.73 995.28 995.46 995.42 995.53 995.82 996.18 996.28 996.35 996.54 996.40 996.27 997.59 1000.99 1003.36 1003.40 1003.29 1001.24 999.75 999.38 999.57
1014.31 1014.00 1014.25 1012.44 1008.19 1006.13 1005.93 1005.39 1003.73 1000.78 996.97 996.05 996.66 996.88 996.92 997.12 997.17 996.34 996.87 997.16 997.17 997.06 996.58 996.41 995.43 995.13 995.31 995.27 995.81 996.10 996.11 995.95 996.20 996.72 996.49 997.47 998.39 1000.65 1002.10 1003.21 1003.80 1001.76 1000.37 1000.41 1002.04
1013.44 1012.66 1011.13 1010.41 1007.49 1007.69 1005.92 1004.88 1002.11 998.69 996.71 995.13 995.52 996.24 996.30 996.28 996.47 996.11 996.61 996.80 996.99 996.64 996.10 995.83 995.35 994.62 994.81 995.06 995.35 995.60 995.70 995.44 995.93 996.61 997.61 998.77 1000.06 1001.46 1001.61 1002.20 1001.36 1000.59 1000.40 1000.65 1001.65
1012.65 1009.34 1008.62 1007.22 1007.85 1006.68 1005.57 1003.39 1000.56 997.62 996.00 994.85 995.08 995.44 995.72 995.72 995.83 995.62 995.93 996.27 996.23 996.27 995.77 994.92 994.90 994.61 994.44 995.15 995.65 995.71 995.31 995.15 995.70 995.98 997.35 998.50 1001.27 1002.21 1003.65 1001.21 1001.19 1001.10 1000.90 1001.23 1001.70
1012.65 1008.96 1005.67 1005.03 1006.57 1006.21 1004.88 1002.30 999.64 997.72 996.15 995.00 994.57 994.83 994.94 994.99 995.17 994.97 995.28 995.46 995.52 995.77 995.50 994.49 994.26 994.23 994.53 995.17 995.32 995.24 995.34 995.29 994.81 995.52 996.69 998.98 1001.11 1004.19 1005.18 1005.31 1002.59 1002.28 1001.54 1001.77 1002.40
1012.02 1007.31 1004.34 1004.85 1005.83 1005.20 1003.35 1001.45 999.66 998.15 996.73 996.28 995.11 994.56 994.51 994.24 994.37 994.06 994.30 994.51 994.69 994.69 995.26 994.61 994.04 994.31 994.51 994.33 994.34 994.66 995.24 995.42 995.33 995.84 997.40 1000.40 1004.19 1005.19 1005.83 1005.70 1004.57 1002.73 1002.09 1002.91 1003.57
1010.07 1005.96 1004.24 1004.75 1004.81 1003.70 1002.30 1000.98 999.43 997.63 997.07 996.96 996.03 995.13 994.14 993.78 993.67 993.79 993.65 993.51 993.84 994.15 994.49 994.38 993.79 993.49 993.51 993.82 994.21 994.60 994.64 994.90 995.45 996.40 998.94 1001.21 1003.46 1004.81 1003.90 1004.32 1005.78 1003.87 1002.72 1003.56 1003.57
1009.76 1005.06 1004.33 1004.24 1003.23 1002.01 1001.40 1000.37 999.16 997.79 996.93 996.88 996.34 995.63 994.45 993.64 993.37 993.48 993.28 993.09 993.52 993.82 994.13 994.40 994.16 993.67 993.70 993.90 994.24 994.73 994.78 995.12 995.48 997.56 1000.13 1002.56 1006.15 1005.40 1004.59 1003.33 1003.81 1002.55 1003.71 1005.14 1005.98
1010.12 1004.40 1003.77 1003.79 1002.68 1001.24 1000.08 999.40 998.71 997.86 997.10 996.85 996.50 995.76 995.10 994.07 993.18 993.31 993.41 993.24 993.73 994.06 994.35 994.52 994.14 994.67 995.75 994.51 994.94 994.56 994.77 995.45 996.97 998.67 1001.33 1003.55 1007.20 1007.86 1005.54 1003.43 1002.99 1003.57 1004.79 1006.37 1007.21
1009.59 1004.60 1003.40 1002.21 1001.86 1001.33 1000.16 998.56 997.88 997.42 997.00 997.25 997.00 996.33 995.35 994.47 993.49 992.92 993.14 993.09 993.40 994.19 994.55 994.84 995.55 996.27 996.80 995.96 996.09 995.98 996.18 996.17 996.78 997.55 1000.46 1003.98 1006.49 1007.04 1005.63 1003.77 1003.50 1004.25 1005.60 1007.03 1007.88
1008.85 1005.81 1004.83 1001.97 1000.16 1000.24 999.74 998.43 997.16 996.69 996.20 996.09 995.88 995.36 995.29 994.24 993.32 992.65 992.90 992.70 993.01 994.01 994.47 994.77 995.52 996.37 997.64 997.08 996.70 996.89 997.07 997.36 997.45 997.49 999.15 1002.18 1005.35 1005.64 1004.91 1004.35 1004.23 1004.76 1006.02 1007.32 1008.40
1008.72 1007.37 1006.05 1003.00 1000.78 999.24 998.79 998.21 997.00 995.92 995.48 995.34 994.89 994.68 993.95 993.86 992.79 992.34 992.23 992.59 992.88 993.72 994.07 994.50 994.79 995.29 995.84 996.39 996.72 996.77 996.97 996.97 996.76 997.50 998.71 1000.17 1002.70 1003.80 1004.37 1004.78 1005.40 1006.02 1006.75 1007.77 1008.89
Wind_Speed
13 13 13 14 14 15 15 15 15 16 16 17 17 17 17 19 23 12 12 1 1 0 5 16 21 22 15 6 2 10 11 8 18 16 17 13 11 9 13 9 3 15 22 21 19
13 13 14 14 14 15 15 17 16 16 16 16 17 17 16 17 11 16 10 3 4 3 11 18 17 12 9 4 8 5 12 3 13 17 13 7 10 12 16 10 21 23 24 20 19
13 13 14 15 15 15 15 16 17 17 17 17 17 18 17 17 10 7 6 4 3 6 13 17 23 21 6 7 9 9 10 12 13 12 13 20 18 13 16 15 18 20 21 18 20
14 14 14 14 15 15 15 16 17 18 18 17 17 18 18 7 2 6 4 2 3 9 14 20 20 18 13 10 4 11 6 13 9 10 5 21 17 17 17 16 20 20 19 17 15
15 15 14 15 15 15 15 16 17 17 18 17 16 17 12 9 14 9 8 6 7 11 14 19 16 10 4 11 1 10 11 13 7 14 5 16 15 17 17 18 20 19 18 17 15
16 16 16 15 16 16 15 16 17 18 17 16 15 19 8 12 4 9 9 12 14 15 16 16 11 9 11 6 7 6 7 16 12 10 7 13 15 14 16 18 18 17 16 16 17
15 16 16 17 17 17 16 16 17 18 18 15 13 9 11 18 4 5 8 12 15 16 15 10 6 11 17 5 3 9 7 9 14 9 9 16 13 16 17 17 17 16 13 12 10
16 17 17 18 19 18 17 17 18 18 18 16 11 10 10 10 18 13 11 11 10 11 14 12 7 13 12 6 8 15 11 8 8 13 11 22 11 16 17 15 15 14 12 12 14
17 17 18 19 19 19 19 19 19 16 14 12 9 10 15 2 14 14 14 14 15 15 14 11 9 17 18 12 13 13 4 11 11 9 27 17 12 17 17 15 14 13 12 11 12
18 16 16 17 18 20 25 21 3 9 8 10 11 10 12 15 13 17 16 17 14 14 15 14 13 15 15 12 7 13 7 1 10 11 6 13 16 19 18 18 16 16 13 13 13
18 17 17 18 19 18 15 4 7 8 15 13 14 14 5 19 13 17 15 13 17 15 17 17 13 16 19 13 12 17 18 11 10 10 3 6 20 19 17 18 16 16 16 16 16
18 19 19 20 21 18 9 8 12 12 12 24 21 18 16 4 10 11 14 15 17 17 19 17 17 22 7 6 2 12 9 4 7 4 7 6 11 17 19 15 20 15 17 17 18
18 19 19 22 26 9 11 16 15 13 9 16 24 20 13 9 15 18 19 18 15 20 20 20 21 21 3 9 8 10 9 2 7 8 10 8 11 21 21 16 12 20 19 19 20
18 19 19 27 7 10 12 15 10 10 8 13 24 20 19 16 16 19 23 20 16 19 21 19 25 18 13 14 13 10 12 7 2 10 11 10 11 8 14 6 8 12 21 20 18
19 18 19 9 14 8 8 6 7 6 8 16 21 10 14 20 10 21 22 21 21 19 14 19 20 21 13 13 10 3 6 12 6 10 16 15 5 5 23 24 28 12 16 14 10
18 18 18 5 8 18 16 10 7 8 11 8 10 16 20 18 23 19 20 19 19 20 18 21 19 15 15 14 6 8 6 11 11 12 13 5 1 12 7 18 14 16 8 11 16
21 18 9 11 8 9 10 8 8 11 14 12 19 19 21 20 23 19 22 22 19 16 16 18 22 17 11 16 4 11 13 11 9 7 10 8 5 6 20 27 32 22 8 7 29
25 26 10 12 11 14 9 9 11 14 23 7 14 16 22 20 22 18 20 18 23 20 15 14 18 22 16 16 12 14 17 10 7 8 8 15 10 6 12 25 25 11 7 2 22
32 7 6 8 16 10 9 12 13 18 15 4 12 14 19 21 17 20 17 21 21 21 19 16 18 22 14 11 16 12 17 17 14 20 13 9 8 12 14 9 12 12 12 9 13
9 11 14 10 13 9 10 17 20 24 13 12 13 15 18 22 21 22 21 21 22 24 23 20 12 19 17 18 21 18 10 12 8 7 8 9 11 7 18 16 5 11 13 14 15
6 7 10 11 10 8 12 19 22 24 4 9 12 12 16 17 20 20 18 16 23 23 22 24 18 15 20 20 20 11 9 14 17 6 1 2 1 8 21 9 7 8 13 15 12
8 8 10 10 9 10 13 21 23 24 8 12 17 16 14 20 22 21 17 17 18 22 23 24 14 13 26 19 17 16 19 18 9 9 7 6 1 10 14 21 29 35 14 14 10
7 7 7 10 9 12 18 21 22 22 8 15 14 12 17 14 16 18 15 14 12 15 17 20 18 11 9 16 13 18 14 17 6 9 7 3 6 20 29 20 25 16 19 12 17
7 5 6 9 12 20 15 18 20 21 15 14 14 16 13 17 13 14 19 13 11 15 10 18 20 12 8 13 9 26 15 16 12 6 8 7 7 10 28 6 9 17 15 16 13
6 9 13 9 13 16 20 21 18 20 16 15 17 18 18 15 15 15 13 17 17 12 15 16 5 6 14 17 10 8 7 13 24 7 12 19 14 15 22 9 10 12 19 18 13
7 9 8 17 8 17 17 20 20 18 22 21 15 17 18 18 16 12 16 18 16 15 19 18 10 16 22 28 6 17 12 16 25 5 8 24 20 23 7 10 10 14 12 14 12
11 12 9 10 16 11 13 19 20 13 15 12 15 15 18 21 22 17 15 17 14 16 19 19 14 10 12 18 16 10 19 29 6 6 7 10 16 13 11 11 11 10 11 13 9
Wind_Direction
350 350 347 343 342 337 333 329 328 325 322 321 321 321 324 323 309 275 260 237 69 320 287 274 264 260 256 146 159 135 62 24 83 74 83 85 95 90 69 74 173 112 133 138 149
348 347 346 344 342 337 333 328 326 323 320 319 318 320 323 326 296 272 251 193 189 160 278 292 324 292 240 203 163 205 101 133 91 86 95 133 127 144 105 105 84 93 109 135 149
350 347 345 344 342 337 332 326 322 321 320 318 319 319 324 319 278 238 119 188 213 232 263 279 281 273 215 131 78 61 103 98 54 86 86 67 48 82 106 115 113 123 129 154 142
349 347 345 342 340 337 330 324 320 318 315 316 318 318 313 277 282 99 168 161 225 266 258 270 271 257 231 104 117 92 46 81 97 99 78 95 76 71 78 97 118 127 143 142 162
349 343 340 339 338 335 329 322 315 311 309 312 317 321 317 231 251 138 171 168 213 226 249 273 296 350 17 116 73 129 138 111 151 102 110 82 92 98 100 108 118 141 150 163 162
347 343 338 335 334 334 329 321 312 306 303 306 313 314 245 254 99 143 208 178 220 216 244 254 324 332 315 58 126 120 207 139 130 131 126 127 130 115 118 123 132 152 162 173 165
344 341 336 331 330 330 324 316 307 300 296 297 308 297 265 246 328 192 213 224 211 218 244 252 300 296 292 148 155 181 157 147 140 171 103 59 342 125 134 140 149 151 171 133 149
346 343 338 334 330 326 319 310 301 290 288 287 291 274 263 274 246 260 226 236 241 242 263 304 321 283 288 270 184 231 216 145 165 146 126 102 264 135 149 148 149 161 147 158 148
345 342 337 334 329 323 316 306 293 280 264 279 263 227 256 148 218 239 234 231 225 224 239 255 266 262 255 242 231 220 200 205 154 184 154 145 160 160 162 156 158 158 157 164 170
342 339 331 329 330 326 319 292 266 297 227 246 255 264 249 235 209 215 218 233 237 221 225 230 238 247 244 217 211 279 150 254 172 161 217 148 166 160 175 169 169 171 161 168 178
340 335 330 326 326 329 328 253 203 195 231 226 197 230 151 220 186 205 203 215 241 215 225 224 237 238 244 294 180 229 209 193 130 128 252 225 158 170 186 180 170 177 168 182 186
338 336 328 324 319 319 284 251 339 329 299 224 252 234 276 355 175 206 226 206 222 222 218 232 224 249 321 265 261 268 239 76 104 165 221 205 203 174 179 195 176 185 172 191 180
335 331 326 321 317 281 239 263 332 310 274 267 209 228 218 223 238 206 213 206 210 226 218 226 225 241 203 239 249 237 264 242 160 188 256 239 225 163 176 177 199 178 184 186 178
331 332 330 328 292 326 246 243 245 278 275 240 192 210 214 209 227 241 199 209 228 218 233 221 245 231 204 256 210 243 328 296 228 217 215 235 282 159 140 178 204 207 193 192 173
329 324 320 331 310 269 5 296 294 256 267 185 174 175 190 203 203 221 192 212 225 220 223 229 232 249 202 216 261 67 250 271 229 279 277 198 242 138 78 49 297 232 217 226 156
317 316 327 263 207 255 304 297 239 233 245 134 126 174 191 204 237 187 200 211 234 242 231 244 231 237 215 239 204 273 244 240 247 249 259 321 259 112 139 162 279 282 218 247 193
310 306 283 305 241 322 232 249 221 244 250 150 162 185 200 195 219 208 202 194 221 220 234 237 249 219 236 226 185 246 246 232 222 308 267 230 238 137 161 157 203 243 218 236 102
311 305 244 222 244 244 265 230 249 226 251 154 186 195 209 193 212 187 190 214 216 219 224 213 226 223 187 226 212 217 235 251 279 227 323 289 61 197 201 197 187 166 161 120 143
310 254 222 232 223 259 234 226 226 249 226 196 182 199 202 210 200 214 196 211 210 227 233 209 228 222 187 215 247 248 261 268 269 235 230 176 112 141 337 156 146 147 131 126 88
311 288 246 171 174 222 231 243 246 253 298 312 221 202 200 208 200 201 198 212 220 209 241 253 210 232 184 199 223 237 276 277 276 271 285 75 95 111 37 324 326 148 136 128 109
255 239 112 144 180 219 226 239 247 263 277 293 286 214 230 209 195 221 212 213 211 205 221 247 254 181 228 206 223 210 243 256 270 278 45 64 173 162 185 193 343 238 123 110 119
281 266 137 163 197 222 231 243 262 278 175 262 284 294 257 226 197 233 207 212 196 224 206 235 250 228 203 202 212 240 219 235 245 249 68 12 131 248 210 163 175 255 133 141 133
271 236 159 201 226 225 224 249 253 256 245 204 255 268 292 251 216 201 239 214 181 219 200 229 243 224 210 197 197 225 230 248 294 50 34 53 5 333 325 157 182 111 95 78 80
271 230 153 213 248 269 259 215 244 248 254 249 272 289 256 275 252 206 227 214 188 225 231 237 262 173 186 231 305 211 226 321 181 93 299 73 171 139 274 51 98 108 106 102 93
246 255 16 191 222 234 259 263 211 240 226 243 245 262 263 246 247 227 219 229 199 197 240 237 189 72 10 307 71 62 64 333 315 83 197 123 113 245 248 152 121 114 118 103 98
291 332 355 297 217 208 242 263 268 218 229 208 234 235 233 259 244 214 218 233 203 201 221 225 187 146 187 240 140 122 128 264 274 18 35 132 157 199 199 118 128 112 125 110 106
347 342 303 290 283 246 216 243 261 245 223 236 247 219 230 230 242 229 214 217 186 208 204 220 226 214 186 185 168 202 182 208 129 68 57 71 114 126 110 106 105 109 117 104 115